| time (UTC) | temp F | wind direction | speed knots | gust knots | rain 1hr in | rain 24hr in | rain mn in | humidity % | barometer mb |
| 20260510153518 | 80 | 60 | 0.0 | 1.7 | 0.00 | 0.01 | 0.00 | 67 | 1016.3 |
| 20260510153029 | 80 | 124 | 0.0 | 1.7 | 0.00 | 0.01 | 0.00 | 68 | 1016.4 |
| 20260510152531 | 80 | 287 | 0.0 | 1.7 | 0.00 | 0.01 | 0.00 | 68 | 1016.4 |
| 20260510152037 | 80 | 113 | 0.0 | 2.6 | 0.00 | 0.01 | 0.00 | 70 | 1016.3 |
| 20260510151545 | 79 | 80 | 0.0 | 2.6 | 0.00 | 0.01 | 0.00 | 70 | 1016.2 |
| 20260510151051 | 79 | 89 | 0.0 | 0.9 | 0.00 | 0.01 | 0.00 | 71 | 1016.4 |
| 20260510150559 | 79 | 225 | 0.0 | 0.9 | 0.00 | 0.01 | 0.00 | 70 | 1016.3 |
| 20260510150114 | 79 | 264 | 0.0 | 3.5 | 0.00 | 0.01 | 0.00 | 72 | 1016.3 |
| 20260510145512 | 78 | 253 | 0.9 | 3.5 | 0.00 | 0.01 | 0.00 | 72 | 1016.4 |
| 20260510145014 | 79 | 268 | 0.0 | 2.6 | 0.00 | 0.01 | 0.00 | 73 | 1016.4 |
| 20260510144522 | 78 | 114 | 0.0 | 2.6 | 0.00 | 0.01 | 0.00 | 72 | 1016.4 |
| 20260510144021 | 78 | 213 | 0.0 | 2.6 | 0.00 | 0.01 | 0.00 | 73 | 1016.5 |
| 20260510143526 | 77 | 6 | 0.0 | 2.6 | 0.00 | 0.01 | 0.00 | 73 | 1016.4 |
| 20260510143039 | 77 | 182 | 0.9 | 2.6 | 0.00 | 0.01 | 0.00 | 74 | 1016.4 |
| 20260510142541 | 77 | 110 | 0.0 | 1.7 | 0.00 | 0.01 | 0.00 | 75 | 1016.4 |
| 20260510142044 | 76 | 229 | 0.0 | 2.6 | 0.00 | 0.01 | 0.00 | 76 | 1016.2 |
| 20260510141550 | 76 | 237 | 0.0 | 2.6 | 0.00 | 0.01 | 0.00 | 77 | 1016.3 |
| 20260510141056 | 76 | 293 | 0.0 | 1.7 | 0.00 | 0.01 | 0.00 | 77 | 1016.3 |
| 20260510140605 | 76 | 106 | 0.0 | 1.7 | 0.00 | 0.01 | 0.00 | 77 | 1016.1 |
| 20260510140006 | 75 | 250 | 0.0 | 1.7 | 0.00 | 0.01 | 0.00 | 79 | 1016.2 |
| 20260510135514 | 74 | 259 | 0.0 | 1.7 | 0.00 | 0.01 | 0.00 | 79 | 1016.1 |
| 20260510135020 | 74 | 108 | 0.0 | 1.7 | 0.00 | 0.01 | 0.00 | 80 | 1016.1 |
| 20260510134527 | 73 | 215 | 0.0 | 1.7 | 0.00 | 0.01 | 0.00 | 81 | 1016.0 |
| 20260510134031 | 73 | 160 | 0.0 | 0.9 | 0.00 | 0.01 | 0.00 | 82 | 1016.1 |
| 20260510133538 | 72 | 158 | 0.0 | 0.0 | 0.00 | 0.01 | 0.00 | 83 | 1016.2 |
| 20260510133046 | 71 | 158 | 0.0 | 0.9 | 0.00 | 0.01 | 0.00 | 84 | 1016.2 |
| 20260510132552 | 71 | 202 | 0.0 | 0.9 | 0.00 | 0.01 | 0.00 | 85 | 1016.2 |
| 20260510132100 | 70 | 180 | 0.0 | 0.9 | 0.00 | 0.01 | 0.00 | 86 | 1016.1 |
| 20260510131501 | 69 | 225 | 0.0 | 0.9 | 0.00 | 0.01 | 0.00 | 87 | 1016.0 |
| 20260510131008 | 69 | 126 | 0.0 | 0.9 | 0.00 | 0.01 | 0.00 | 87 | 1015.9 |
| 20260510130515 | 68 | 139 | 0.0 | 0.0 | 0.00 | 0.01 | 0.00 | 87 | 1016.0 |
| 20260510130028 | 68 | 139 | 0.0 | 0.0 | 0.00 | 0.01 | 0.00 | 88 | 1016.0 |
| 20260510125529 | 67 | 139 | 0.0 | 0.0 | 0.00 | 0.01 | 0.00 | 88 | 1016.0 |
| 20260510125035 | 67 | 139 | 0.0 | 0.9 | 0.00 | 0.01 | 0.00 | 89 | 1016.0 |
| 20260510124605 | 66 | 139 | 0.0 | 0.9 | 0.00 | 0.01 | 0.00 | 89 | 1016.0 |
| 20260510124049 | 66 | 139 | 0.0 | 1.7 | 0.00 | 0.01 | 0.00 | 90 | 1016.0 |
| 20260510123539 | 65 | 199 | 0.0 | 1.7 | 0.00 | 0.01 | 0.00 | 90 | 1016.0 |
| 20260510123043 | 65 | 130 | 0.0 | 0.9 | 0.00 | 0.01 | 0.00 | 91 | 1015.9 |
| 20260510122551 | 64 | 130 | 0.0 | 0.9 | 0.00 | 0.01 | 0.00 | 91 | 1015.8 |
| 20260510122057 | 64 | 131 | 0.0 | 0.9 | 0.00 | 0.01 | 0.00 | 92 | 1015.8 |
| 20260510121501 | 63 | 123 | 0.0 | 0.9 | 0.00 | 0.01 | 0.00 | 93 | 1015.8 |
| 20260510121006 | 62 | 123 | 0.0 | 0.9 | 0.00 | 0.01 | 0.00 | 93 | 1015.7 |
| 20260510120515 | 61 | 150 | 0.0 | 0.0 | 0.00 | 0.01 | 0.00 | 93 | 1015.7 |
| 20260510120023 | 61 | 150 | 0.0 | 0.0 | 0.00 | 0.01 | 0.00 | 93 | 1015.8 |
| 20260510115529 | 61 | 150 | 0.0 | 0.0 | 0.00 | 0.01 | 0.00 | 93 | 1015.8 |
| 20260510115035 | 60 | 150 | 0.0 | 0.0 | 0.00 | 0.01 | 0.00 | 93 | 1015.8 |
| 20260510114544 | 60 | 150 | 0.0 | 0.0 | 0.00 | 0.01 | 0.00 | 93 | 1015.7 |
| 20260510114049 | 59 | 150 | 0.0 | 0.0 | 0.00 | 0.01 | 0.00 | 93 | 1015.7 |
| 20260510113558 | 59 | 150 | 0.0 | 0.0 | 0.00 | 0.01 | 0.00 | 93 | 1015.7 |
| 20260510113110 | 59 | 150 | 0.0 | 0.0 | 0.00 | 0.01 | 0.00 | 92 | 1015.7 |
| 20260510112552 | 58 | 150 | 0.0 | 0.0 | 0.00 | 0.01 | 0.00 | 92 | 1015.6 |
| 20260510112100 | 58 | 150 | 0.0 | 0.0 | 0.00 | 0.01 | 0.00 | 92 | 1015.4 |
| 20260510111503 | 58 | 150 | 0.0 | 0.0 | 0.00 | 0.01 | 0.00 | 91 | 1015.3 |
| 20260510111058 | 58 | 150 | 0.0 | 0.0 | 0.00 | 0.01 | 0.00 | 91 | 1015.3 |
| 20260510110605 | 58 | 150 | 0.0 | 0.0 | 0.00 | 0.01 | 0.00 | 91 | 1015.3 |
| 20260510110009 | 58 | 150 | 0.0 | 0.0 | 0.00 | 0.01 | 0.00 | 91 | 1015.2 |
| 20260510105600 | 58 | 150 | 0.0 | 0.0 | 0.00 | 0.01 | 0.00 | 91 | 1015.1 |
| 20260510105043 | 58 | 150 | 0.0 | 0.0 | 0.00 | 0.01 | 0.00 | 91 | 1015.0 |
| 20260510104603 | 58 | 150 | 0.0 | 0.0 | 0.00 | 0.01 | 0.00 | 91 | 1014.9 |
| 20260510104056 | 58 | 150 | 0.0 | 0.0 | 0.00 | 0.01 | 0.00 | 91 | 1014.8 |
| 20260510103603 | 58 | 150 | 0.0 | 0.0 | 0.00 | 0.01 | 0.00 | 90 | 1014.8 |
| 20260510103003 | 58 | 150 | 0.0 | 0.0 | 0.00 | 0.01 | 0.00 | 90 | 1014.7 |
| 20260510102511 | 58 | 150 | 0.0 | 0.0 | 0.00 | 0.01 | 0.00 | 90 | 1014.6 |
| 20260510102018 | 58 | 150 | 0.0 | 0.0 | 0.00 | 0.01 | 0.00 | 90 | 1014.6 |
| 20260510101526 | 58 | 150 | 0.0 | 0.0 | 0.00 | 0.01 | 0.00 | 90 | 1014.6 |
| 20260510101031 | 59 | 150 | 0.0 | 0.0 | 0.00 | 0.01 | 0.00 | 90 | 1014.5 |
| 20260510100542 | 59 | 150 | 0.0 | 0.0 | 0.00 | 0.01 | 0.00 | 90 | 1014.5 |
| 20260510100046 | 59 | 150 | 0.0 | 0.0 | 0.00 | 0.01 | 0.00 | 90 | 1014.4 |
| 20260510095553 | 59 | 150 | 0.0 | 0.0 | 0.00 | 0.01 | 0.00 | 90 | 1014.5 |
| 20260510095100 | 59 | 150 | 0.0 | 0.0 | 0.00 | 0.01 | 0.00 | 90 | 1014.4 |
| 20260510094504 | 59 | 150 | 0.0 | 0.0 | 0.00 | 0.01 | 0.00 | 90 | 1014.3 |
| 20260510094008 | 59 | 150 | 0.0 | 0.0 | 0.00 | 0.01 | 0.00 | 90 | 1014.2 |
| 20260510093516 | 59 | 150 | 0.0 | 0.0 | 0.00 | 0.01 | 0.00 | 90 | 1014.2 |
| 20260510093023 | 59 | 150 | 0.0 | 0.0 | 0.00 | 0.01 | 0.00 | 90 | 1014.1 |
| 20260510092531 | 59 | 150 | 0.0 | 0.0 | 0.00 | 0.01 | 0.00 | 90 | 1014.1 |
| 20260510092035 | 59 | 150 | 0.0 | 0.0 | 0.00 | 0.01 | 0.00 | 90 | 1013.9 |
| 20260510091552 | 59 | 150 | 0.0 | 0.0 | 0.00 | 0.01 | 0.00 | 89 | 1013.9 |
| 20260510091047 | 59 | 150 | 0.0 | 0.0 | 0.00 | 0.01 | 0.00 | 88 | 1013.8 |
| 20260510090557 | 59 | 150 | 0.0 | 0.0 | 0.00 | 0.01 | 0.00 | 88 | 1013.7 |
| 20260510090040 | 59 | 150 | 0.0 | 0.0 | 0.00 | 0.01 | 0.00 | 88 | 1013.6 |
| 20260510085547 | 59 | 150 | 0.0 | 0.0 | 0.00 | 0.01 | 0.00 | 88 | 1013.6 |
| 20260510085051 | 59 | 150 | 0.0 | 0.0 | 0.00 | 0.01 | 0.00 | 87 | 1013.5 |
| 20260510084605 | 59 | 150 | 0.0 | 0.0 | 0.00 | 0.01 | 0.00 | 88 | 1013.6 |
| 20260510084001 | 59 | 150 | 0.0 | 0.0 | 0.00 | 0.01 | 0.00 | 87 | 1013.6 |
| 20260510083600 | 59 | 150 | 0.0 | 0.0 | 0.00 | 0.01 | 0.00 | 87 | 1013.6 |
| 20260510083115 | 60 | 150 | 0.0 | 0.0 | 0.00 | 0.01 | 0.00 | 87 | 1013.7 |
| 20260510082505 | 60 | 150 | 0.0 | 0.0 | 0.00 | 0.01 | 0.00 | 88 | 1013.7 |
| 20260510082012 | 60 | 150 | 0.0 | 0.0 | 0.00 | 0.01 | 0.00 | 86 | 1013.7 |
| 20260510081532 | 60 | 150 | 0.0 | 0.0 | 0.00 | 0.01 | 0.00 | 86 | 1013.6 |
| 20260510081026 | 60 | 150 | 0.0 | 0.0 | 0.00 | 0.01 | 0.00 | 86 | 1013.5 |
| 20260510080533 | 60 | 150 | 0.0 | 0.0 | 0.00 | 0.01 | 0.00 | 86 | 1013.6 |
| 20260510080040 | 60 | 150 | 0.0 | 0.0 | 0.00 | 0.01 | 0.00 | 86 | 1013.6 |
| 20260510075539 | 60 | 150 | 0.0 | 0.0 | 0.00 | 0.01 | 0.00 | 86 | 1013.6 |
| 20260510075046 | 60 | 150 | 0.0 | 0.0 | 0.00 | 0.01 | 0.00 | 86 | 1013.5 |
| 20260510074553 | 60 | 150 | 0.0 | 0.0 | 0.00 | 0.01 | 0.00 | 85 | 1013.6 |
| 20260510074059 | 60 | 150 | 0.0 | 0.0 | 0.00 | 0.01 | 0.00 | 84 | 1013.5 |
| 20260510073502 | 60 | 150 | 0.0 | 0.0 | 0.00 | 0.01 | 0.00 | 84 | 1013.5 |
| 20260510073016 | 60 | 150 | 0.0 | 0.0 | 0.00 | 0.01 | 0.00 | 84 | 1013.6 |
| 20260510072502 | 60 | 150 | 0.0 | 0.0 | 0.00 | 0.01 | 0.00 | 83 | 1013.7 |
| 20260510072053 | 60 | 150 | 0.0 | 0.0 | 0.00 | 0.01 | 0.00 | 83 | 1013.6 |
| 20260510071602 | 60 | 150 | 0.0 | 0.0 | 0.00 | 0.01 | 0.00 | 82 | 1013.5 |
| 20260510071006 | 60 | 150 | 0.0 | 0.0 | 0.00 | 0.01 | 0.00 | 83 | 1013.6 |
| 20260510070510 | 60 | 150 | 0.0 | 0.0 | 0.00 | 0.01 | 0.00 | 82 | 1013.5 |
| 20260510070023 | 60 | 150 | 0.0 | 0.0 | 0.00 | 0.01 | 0.00 | 82 | 1013.7 |
| 20260510065523 | 60 | 150 | 0.0 | 0.0 | 0.00 | 0.01 | 0.00 | 82 | 1013.7 |
| 20260510065029 | 60 | 150 | 0.0 | 0.0 | 0.00 | 0.01 | 0.00 | 82 | 1013.7 |
| 20260510064002 | 60 | 150 | 0.0 | 0.0 | 0.00 | 0.01 | 0.00 | 81 | 1013.6 |
| 20260510063510 | 60 | 150 | 0.0 | 0.0 | 0.00 | 0.01 | 0.00 | 81 | 1013.5 |
| 20260510063021 | 60 | 150 | 0.0 | 0.0 | 0.00 | 0.01 | 0.00 | 81 | 1013.4 |
| 20260510062530 | 60 | 150 | 0.0 | 0.0 | 0.00 | 0.01 | 0.00 | 80 | 1013.4 |
| 20260510062037 | 60 | 150 | 0.0 | 0.0 | 0.00 | 0.01 | 0.00 | 81 | 1013.2 |
| 20260510061548 | 60 | 150 | 0.0 | 0.0 | 0.00 | 0.01 | 0.00 | 81 | 1013.2 |
| 20260510061048 | 60 | 150 | 0.0 | 0.0 | 0.00 | 0.01 | 0.00 | 80 | 1013.1 |
| 20260510060557 | 60 | 150 | 0.0 | 0.0 | 0.00 | 0.01 | 0.00 | 81 | 1013.1 |
| 20260510060059 | 61 | 150 | 0.0 | 0.0 | 0.00 | 0.01 | 0.00 | 81 | 1013.1 |
| 20260510055502 | 60 | 150 | 0.0 | 0.0 | 0.00 | 0.01 | 0.00 | 79 | 1013.0 |
| 20260510055008 | 60 | 150 | 0.0 | 0.0 | 0.00 | 0.01 | 0.00 | 80 | 1013.1 |
| 20260510054605 | 61 | 150 | 0.0 | 0.0 | 0.00 | 0.01 | 0.00 | 80 | 1013.1 |
| 20260510054008 | 61 | 150 | 0.0 | 0.0 | 0.00 | 0.01 | 0.00 | 81 | 1013.2 |
| 20260510053517 | 61 | 150 | 0.0 | 0.0 | 0.00 | 0.01 | 0.00 | 80 | 1013.1 |
| 20260510053023 | 61 | 150 | 0.0 | 0.0 | 0.00 | 0.01 | 0.00 | 80 | 1013.0 |
| 20260510052529 | 61 | 147 | 0.0 | 0.0 | 0.00 | 0.01 | 0.00 | 81 | 1013.0 |
| 20260510052033 | 61 | 147 | 0.0 | 0.0 | 0.00 | 0.01 | 0.00 | 81 | 1013.0 |
| 20260510051541 | 61 | 147 | 0.0 | 0.0 | 0.00 | 0.01 | 0.00 | 80 | 1013.0 |
| 20260510051050 | 61 | 147 | 0.0 | 0.0 | 0.00 | 0.01 | 0.00 | 80 | 1012.9 |
| 20260510050557 | 61 | 147 | 0.0 | 0.0 | 0.00 | 0.01 | 0.00 | 80 | 1012.9 |
| 20260510050112 | 62 | 147 | 0.0 | 0.0 | 0.00 | 0.01 | 0.00 | 79 | 1012.9 |
| 20260510045551 | 62 | 147 | 0.0 | 0.0 | 0.00 | 0.01 | 0.01 | 79 | 1012.9 |
| 20260510045038 | 62 | 147 | 0.0 | 0.0 | 0.00 | 0.01 | 0.01 | 79 | 1012.9 |
| 20260510044553 | 62 | 148 | 0.0 | 0.0 | 0.00 | 0.01 | 0.01 | 79 | 1012.9 |
| 20260510044049 | 62 | 147 | 0.0 | 0.0 | 0.00 | 0.01 | 0.01 | 79 | 1012.9 |
| 20260510043557 | 62 | 147 | 0.0 | 0.0 | 0.00 | 0.01 | 0.01 | 78 | 1012.9 |
| 20260510043103 | 62 | 148 | 0.0 | 0.0 | 0.00 | 0.01 | 0.01 | 78 | 1012.9 |
| 20260510042553 | 62 | 147 | 0.0 | 0.0 | 0.00 | 0.01 | 0.01 | 79 | 1012.9 |
| 20260510042040 | 62 | 147 | 0.0 | 0.0 | 0.00 | 0.01 | 0.01 | 78 | 1012.9 |
| 20260510041602 | 63 | 147 | 0.0 | 0.0 | 0.00 | 0.01 | 0.01 | 78 | 1012.9 |
| 20260510041052 | 63 | 147 | 0.0 | 0.0 | 0.00 | 0.01 | 0.01 | 77 | 1013.0 |
| 20260510040543 | 63 | 147 | 0.0 | 0.0 | 0.00 | 0.01 | 0.01 | 77 | 1013.1 |
| 20260510040030 | 63 | 147 | 0.0 | 0.0 | 0.00 | 0.01 | 0.01 | 77 | 1013.1 |
| 20260510035537 | 63 | 147 | 0.0 | 0.0 | 0.00 | 0.01 | 0.01 | 76 | 1013.1 |
| 20260510035043 | 63 | 147 | 0.0 | 0.0 | 0.00 | 0.01 | 0.01 | 77 | 1013.1 |
| 20260510034558 | 64 | 147 | 0.0 | 0.0 | 0.00 | 0.01 | 0.01 | 76 | 1013.1 |
| 20260510034056 | 64 | 147 | 0.0 | 0.0 | 0.00 | 0.01 | 0.01 | 75 | 1013.0 |
| 20260510033604 | 64 | 147 | 0.0 | 0.0 | 0.00 | 0.01 | 0.01 | 76 | 1013.0 |
| 20260510033005 | 64 | 156 | 0.0 | 0.0 | 0.00 | 0.01 | 0.01 | 75 | 1013.1 |
| 20260510032512 | 64 | 156 | 0.0 | 0.0 | 0.00 | 0.01 | 0.01 | 74 | 1013.1 |
| 20260510032020 | 64 | 156 | 0.0 | 0.0 | 0.00 | 0.01 | 0.01 | 74 | 1013.1 |
| 20260510031532 | 64 | 156 | 0.0 | 0.0 | 0.00 | 0.01 | 0.01 | 74 | 1013.0 |
| 20260510031031 | 65 | 156 | 0.0 | 0.0 | 0.00 | 0.01 | 0.01 | 73 | 1013.0 |
| 20260510030539 | 65 | 156 | 0.0 | 0.9 | 0.00 | 0.01 | 0.01 | 73 | 1013.0 |
| 20260510030055 | 65 | 156 | 0.0 | 0.9 | 0.00 | 0.01 | 0.01 | 73 | 1013.0 |
| 20260510025554 | 65 | 101 | 0.0 | 0.0 | 0.00 | 0.01 | 0.01 | 72 | 1013.0 |
| 20260510025104 | 66 | 101 | 0.0 | 0.0 | 0.00 | 0.01 | 0.01 | 72 | 1012.9 |
| 20260510024504 | 66 | 101 | 0.0 | 0.0 | 0.00 | 0.01 | 0.01 | 71 | 1012.9 |
| 20260510024006 | 66 | 101 | 0.0 | 0.0 | 0.00 | 0.01 | 0.01 | 71 | 1012.8 |
| 20260510023513 | 66 | 101 | 0.0 | 0.0 | 0.00 | 0.01 | 0.01 | 70 | 1012.9 |
| 20260510023018 | 66 | 101 | 0.0 | 0.0 | 0.00 | 0.01 | 0.01 | 70 | 1012.8 |
| 20260510022525 | 67 | 101 | 0.0 | 0.0 | 0.00 | 0.01 | 0.01 | 69 | 1012.7 |
| 20260510022027 | 67 | 101 | 0.0 | 0.9 | 0.00 | 0.01 | 0.01 | 68 | 1012.6 |
| 20260510021535 | 67 | 101 | 0.0 | 0.9 | 0.00 | 0.01 | 0.01 | 67 | 1012.6 |
| 20260510021042 | 67 | 63 | 0.0 | 0.0 | 0.00 | 0.01 | 0.01 | 66 | 1012.4 |
| 20260510020546 | 68 | 63 | 0.0 | 0.0 | 0.00 | 0.01 | 0.01 | 65 | 1012.4 |
| 20260510020037 | 68 | 63 | 0.0 | 0.0 | 0.00 | 0.01 | 0.01 | 64 | 1012.4 |
| 20260510015543 | 68 | 63 | 0.0 | 0.0 | 0.00 | 0.01 | 0.01 | 64 | 1012.3 |
| 20260510015049 | 69 | 63 | 0.0 | 0.0 | 0.00 | 0.01 | 0.01 | 63 | 1012.2 |
| 20260510014600 | 69 | 63 | 0.0 | 0.0 | 0.00 | 0.01 | 0.01 | 62 | 1012.2 |
| 20260510014103 | 70 | 63 | 0.0 | 0.0 | 0.00 | 0.01 | 0.01 | 62 | 1012.0 |
| 20260510013504 | 70 | 63 | 0.0 | 0.0 | 0.00 | 0.01 | 0.01 | 60 | 1012.0 |
| 20260510013018 | 71 | 63 | 0.0 | 0.0 | 0.00 | 0.01 | 0.01 | 59 | 1012.0 |
| 20260510012517 | 71 | 63 | 0.0 | 0.0 | 0.00 | 0.01 | 0.01 | 59 | 1011.8 |
| 20260510012022 | 71 | 63 | 0.0 | 0.0 | 0.00 | 0.01 | 0.01 | 58 | 1011.8 |
| 20260510011529 | 71 | 63 | 0.0 | 0.0 | 0.00 | 0.01 | 0.01 | 58 | 1011.8 |
| 20260510011037 | 72 | 61 | 0.0 | 0.0 | 0.00 | 0.01 | 0.01 | 57 | 1011.6 |
| 20260510010542 | 72 | 60 | 0.0 | 0.0 | 0.00 | 0.01 | 0.01 | 56 | 1011.5 |
| 20260510010050 | 73 | 60 | 0.0 | 0.0 | 0.00 | 0.01 | 0.01 | 55 | 1011.4 |
| 20260510005557 | 73 | 60 | 0.0 | 0.0 | 0.00 | 0.01 | 0.01 | 53 | 1011.4 |
| 20260510005105 | 74 | 60 | 0.0 | 0.0 | 0.00 | 0.01 | 0.01 | 54 | 1011.3 |
| 20260510004508 | 75 | 60 | 0.0 | 0.0 | 0.00 | 0.01 | 0.01 | 52 | 1011.1 |
| 20260510004020 | 75 | 60 | 0.0 | 0.0 | 0.00 | 0.01 | 0.01 | 50 | 1011.1 |
| 20260510003532 | 76 | 60 | 0.0 | 0.0 | 0.00 | 0.01 | 0.01 | 48 | 1010.9 |
| 20260510003039 | 76 | 60 | 0.0 | 0.0 | 0.00 | 0.01 | 0.01 | 46 | 1011.0 |
| 20260510002533 | 77 | 60 | 0.0 | 0.0 | 0.00 | 0.01 | 0.01 | 45 | 1010.8 |
| 20260510002040 | 77 | 60 | 0.0 | 0.0 | 0.00 | 0.01 | 0.01 | 44 | 1010.7 |
| 20260510001550 | 78 | 60 | 0.0 | 0.9 | 0.00 | 0.01 | 0.01 | 44 | 1010.8 |
| 20260510001053 | 78 | 60 | 0.0 | 0.9 | 0.00 | 0.01 | 0.01 | 43 | 1010.7 |
| 20260510000601 | 78 | 60 | 0.0 | 0.0 | 0.00 | 0.01 | 0.01 | 42 | 1010.7 |
| 20260510000002 | 79 | 56 | 0.0 | 0.9 | 0.00 | 0.01 | 0.01 | 41 | 1010.6 |
| 20260509235509 | 79 | 56 | 0.0 | 0.9 | 0.00 | 0.01 | 0.01 | 40 | 1010.5 |
| 20260509235058 | 79 | 56 | 0.0 | 0.9 | 0.00 | 0.01 | 0.01 | 40 | 1010.5 |
| 20260509234507 | 80 | 58 | 0.0 | 0.0 | 0.00 | 0.01 | 0.01 | 39 | 1010.4 |
| 20260509234006 | 80 | 58 | 0.0 | 0.9 | 0.00 | 0.01 | 0.01 | 39 | 1010.4 |
| 20260509233513 | 80 | 60 | 0.0 | 0.9 | 0.00 | 0.01 | 0.01 | 39 | 1010.3 |
| 20260509233031 | 80 | 61 | 0.0 | 0.9 | 0.00 | 0.01 | 0.01 | 39 | 1010.3 |
| 20260509232524 | 81 | 63 | 0.0 | 0.9 | 0.00 | 0.01 | 0.01 | 39 | 1010.3 |
| 20260509232028 | 81 | 100 | 0.0 | 0.9 | 0.00 | 0.01 | 0.01 | 38 | 1010.3 |
| 20260509231547 | 81 | 100 | 0.0 | 0.9 | 0.00 | 0.01 | 0.01 | 37 | 1010.4 |
| 20260509231045 | 82 | 101 | 0.0 | 0.9 | 0.00 | 0.01 | 0.01 | 37 | 1010.3 |
| 20260509230548 | 83 | 49 | 0.0 | 0.9 | 0.00 | 0.01 | 0.01 | 36 | 1010.2 |
| 20260509230106 | 83 | 263 | 0.0 | 0.9 | 0.00 | 0.01 | 0.01 | 37 | 1010.2 |
| 20260509225604 | 83 | 207 | 0.0 | 1.7 | 0.00 | 0.01 | 0.01 | 36 | 1010.2 |
| 20260509225055 | 83 | 105 | 0.0 | 1.7 | 0.00 | 0.01 | 0.01 | 36 | 1010.2 |
| 20260509224604 | 83 | 258 | 0.0 | 1.7 | 0.00 | 0.01 | 0.01 | 37 | 1010.1 |
| 20260509224001 | 83 | 103 | 0.0 | 1.7 | 0.00 | 0.01 | 0.01 | 34 | 1010.1 |
| 20260509223557 | 84 | 58 | 0.0 | 0.9 | 0.00 | 0.01 | 0.01 | 35 | 1010.0 |
| 20260509223103 | 84 | 203 | 0.0 | 0.0 | 0.00 | 0.01 | 0.01 | 37 | 1010.0 |
| 20260509222508 | 84 | 72 | 0.0 | 0.0 | 0.00 | 0.01 | 0.01 | 37 | 1010.1 |
| 20260509222057 | 84 | 75 | 0.0 | 0.9 | 0.00 | 0.01 | 0.01 | 35 | 1010.1 |
| 20260509221501 | 83 | 219 | 0.0 | 2.6 | 0.00 | 0.01 | 0.01 | 35 | 1010.1 |
| 20260509221010 | 83 | 206 | 0.0 | 1.7 | 0.00 | 0.01 | 0.01 | 34 | 1010.3 |
| 20260509220520 | 84 | 252 | 0.0 | 2.6 | 0.00 | 0.01 | 0.01 | 35 | 1010.4 |
| 20260509220025 | 83 | 277 | 0.0 | 2.6 | 0.00 | 0.01 | 0.01 | 34 | 1010.4 |
| 20260509215525 | 84 | 271 | 0.0 | 1.7 | 0.00 | 0.01 | 0.01 | 34 | 1010.4 |
| 20260509215032 | 84 | 355 | 0.0 | 1.7 | 0.00 | 0.01 | 0.01 | 34 | 1010.3 |
| 20260509214538 | 84 | 284 | 0.0 | 1.7 | 0.00 | 0.01 | 0.01 | 36 | 1010.3 |
| 20260509214043 | 84 | 356 | 0.0 | 1.7 | 0.00 | 0.01 | 0.01 | 35 | 1010.4 |
| 20260509213550 | 84 | 101 | 0.0 | 2.6 | 0.00 | 0.01 | 0.01 | 34 | 1010.4 |
| 20260509213058 | 84 | 87 | 0.0 | 1.7 | 0.00 | 0.01 | 0.01 | 35 | 1010.4 |
| 20260509212603 | 84 | 233 | 0.0 | 1.7 | 0.00 | 0.01 | 0.01 | 33 | 1010.5 |
| 20260509212054 | 85 | 45 | 0.0 | 1.7 | 0.00 | 0.01 | 0.01 | 35 | 1010.6 |
| 20260509211604 | 84 | 44 | 0.0 | 3.5 | 0.00 | 0.01 | 0.01 | 36 | 1010.6 |
| 20260509211002 | 84 | 32 | 0.0 | 3.5 | 0.00 | 0.01 | 0.01 | 35 | 1010.6 |
| 20260509210559 | 84 | 131 | 0.0 | 1.7 | 0.00 | 0.01 | 0.01 | 34 | 1010.7 |
| 20260509210058 | 84 | 238 | 0.0 | 1.7 | 0.00 | 0.01 | 0.01 | 36 | 1010.7 |
| 20260509205553 | 84 | 105 | 0.0 | 2.6 | 0.00 | 0.01 | 0.01 | 34 | 1010.7 |
| 20260509205054 | 84 | 283 | 0.0 | 1.7 | 0.00 | 0.01 | 0.01 | 36 | 1010.7 |
| 20260509204546 | 83 | 262 | 0.0 | 1.7 | 0.00 | 0.01 | 0.01 | 36 | 1010.7 |
| 20260509204033 | 83 | 6 | 0.0 | 1.7 | 0.00 | 0.01 | 0.01 | 35 | 1010.7 |
| 20260509203543 | 83 | 37 | 0.0 | 3.5 | 0.00 | 0.01 | 0.01 | 37 | 1010.7 |
| 20260509203047 | 84 | 266 | 0.0 | 2.6 | 0.00 | 0.01 | 0.01 | 36 | 1010.7 |
| 20260509202557 | 84 | 78 | 0.0 | 1.7 | 0.00 | 0.01 | 0.01 | 35 | 1010.7 |
| 20260509202059 | 83 | 252 | 0.0 | 2.6 | 0.00 | 0.01 | 0.01 | 37 | 1010.7 |
| 20260509201557 | 83 | 261 | 0.0 | 2.6 | 0.00 | 0.01 | 0.01 | 34 | 1010.8 |
| 20260509201100 | 84 | 91 | 0.0 | 1.7 | 0.00 | 0.01 | 0.01 | 35 | 1010.8 |
| 20260509200604 | 84 | 117 | 0.0 | 1.7 | 0.00 | 0.01 | 0.01 | 36 | 1010.8 |
| 20260509200006 | 83 | 150 | 0.0 | 2.6 | 0.00 | 0.01 | 0.01 | 36 | 1010.8 |
| 20260509195514 | 83 | 253 | 0.0 | 2.6 | 0.00 | 0.01 | 0.01 | 35 | 1010.8 |
| 20260509195020 | 83 | 255 | 0.0 | 2.6 | 0.00 | 0.01 | 0.01 | 39 | 1011.0 |
| 20260509194524 | 83 | 265 | 0.0 | 1.7 | 0.00 | 0.01 | 0.01 | 39 | 1011.0 |
| 20260509194029 | 83 | 281 | 0.0 | 2.6 | 0.00 | 0.01 | 0.01 | 41 | 1011.0 |
| 20260509193527 | 82 | 267 | 0.0 | 3.5 | 0.00 | 0.01 | 0.01 | 42 | 1011.0 |
| 20260509193031 | 82 | 262 | 1.7 | 3.5 | 0.00 | 0.01 | 0.01 | 40 | 1011.0 |
| 20260509192540 | 81 | 52 | 0.0 | 3.5 | 0.00 | 0.01 | 0.01 | 45 | 1010.9 |
| 20260509192043 | 81 | 85 | 1.7 | 5.2 | 0.00 | 0.01 | 0.01 | 42 | 1011.0 |
| 20260509191554 | 81 | 75 | 1.7 | 5.2 | 0.00 | 0.01 | 0.01 | 43 | 1011.1 |
| 20260509191057 | 81 | 106 | 0.0 | 3.5 | 0.00 | 0.01 | 0.01 | 43 | 1011.0 |
| 20260509190503 | 82 | 110 | 1.7 | 3.5 | 0.00 | 0.01 | 0.01 | 41 | 1011.2 |
| 20260509190108 | 82 | 352 | 0.0 | 3.5 | 0.00 | 0.01 | 0.01 | 42 | 1011.2 |
| 20260509185603 | 82 | 262 | 1.7 | 3.5 | 0.00 | 0.01 | 0.01 | 39 | 1011.2 |
| 20260509185005 | 82 | 84 | 0.0 | 1.7 | 0.00 | 0.01 | 0.01 | 40 | 1011.3 |
| 20260509184610 | 82 | 63 | 0.0 | 2.6 | 0.00 | 0.01 | 0.01 | 40 | 1011.2 |
| 20260509184006 | 82 | 30 | 0.0 | 2.6 | 0.00 | 0.01 | 0.01 | 40 | 1011.3 |
| 20260509183510 | 81 | 275 | 0.0 | 2.6 | 0.00 | 0.01 | 0.01 | 44 | 1011.4 |
| 20260509183027 | 80 | 88 | 0.0 | 4.3 | 0.00 | 0.01 | 0.01 | 46 | 1011.3 |
| 20260509182521 | 79 | 100 | 0.9 | 4.3 | 0.00 | 0.01 | 0.01 | 46 | 1011.3 |
| 20260509182025 | 80 | 86 | 0.9 | 2.6 | 0.00 | 0.01 | 0.01 | 44 | 1011.5 |
| 20260509181532 | 82 | 84 | 0.9 | 1.7 | 0.00 | 0.01 | 0.01 | 45 | 1011.4 |
| 20260509181037 | 81 | 238 | 0.0 | 1.7 | 0.00 | 0.01 | 0.01 | 46 | 1011.4 |
| 20260509180547 | 81 | 233 | 0.0 | 1.7 | 0.00 | 0.01 | 0.01 | 45 | 1011.5 |
| 20260509180059 | 81 | 101 | 0.0 | 3.5 | 0.00 | 0.01 | 0.01 | 46 | 1011.4 |
| 20260509175557 | 80 | 246 | 0.0 | 3.5 | 0.00 | 0.01 | 0.01 | 50 | 1011.5 |
| 20260509175103 | 80 | 225 | 0.0 | 3.5 | 0.00 | 0.01 | 0.01 | 49 | 1011.5 |
| 20260509174506 | 80 | 250 | 0.9 | 3.5 | 0.00 | 0.01 | 0.01 | 49 | 1011.6 |
| 20260509174014 | 80 | 13 | 0.0 | 2.6 | 0.00 | 0.01 | 0.01 | 49 | 1011.6 |
| 20260509173522 | 80 | 239 | 0.0 | 2.6 | 0.00 | 0.01 | 0.01 | 47 | 1011.7 |
| 20260509173029 | 80 | 241 | 0.0 | 1.7 | 0.00 | 0.01 | 0.01 | 50 | 1011.7 |
| 20260509172531 | 80 | 82 | 0.0 | 1.7 | 0.00 | 0.01 | 0.01 | 46 | 1011.6 |
| 20260509172039 | 79 | 144 | 0.0 | 4.3 | 0.00 | 0.01 | 0.01 | 51 | 1011.6 |
| 20260509171548 | 79 | 155 | 0.9 | 4.3 | 0.00 | 0.01 | 0.01 | 50 | 1011.5 |
| 20260509171036 | 79 | 78 | 0.0 | 3.5 | 0.00 | 0.01 | 0.01 | 51 | 1011.5 |
| 20260509170544 | 79 | 117 | 0.0 | 3.5 | 0.00 | 0.01 | 0.01 | 51 | 1011.6 |
| 20260509170059 | 79 | 63 | 0.0 | 2.6 | 0.00 | 0.01 | 0.01 | 52 | 1011.6 |
| 20260509165600 | 79 | 355 | 0.0 | 4.3 | 0.00 | 0.01 | 0.01 | 53 | 1011.6 |
| 20260509165101 | 79 | 262 | 0.0 | 1.7 | 0.01 | 0.01 | 0.01 | 53 | 1011.6 |
| 20260509164503 | 80 | 44 | 0.0 | 1.7 | 0.01 | 0.01 | 0.01 | 52 | 1011.7 |
| 20260509164011 | 79 | 80 | 0.0 | 1.7 | 0.01 | 0.01 | 0.01 | 53 | 1011.6 |
| 20260509163516 | 78 | 89 | 0.0 | 3.5 | 0.01 | 0.01 | 0.01 | 58 | 1011.6 |
| 20260509163040 | 78 | 124 | 0.0 | 3.5 | 0.01 | 0.01 | 0.01 | 58 | 1011.6 |
| 20260509162532 | 77 | 56 | 0.0 | 1.7 | 0.01 | 0.01 | 0.01 | 58 | 1011.7 |
| 20260509162036 | 77 | 235 | 0.0 | 1.7 | 0.01 | 0.01 | 0.01 | 58 | 1011.6 |
| 20260509161552 | 77 | 265 | 0.0 | 1.7 | 0.01 | 0.01 | 0.01 | 58 | 1011.5 |
| 20260509161056 | 77 | 238 | 0.0 | 3.5 | 0.01 | 0.01 | 0.01 | 59 | 1011.5 |
| 20260509160557 | 76 | 213 | 0.0 | 3.5 | 0.01 | 0.01 | 0.01 | 60 | 1011.4 |
| 20260509160109 | 77 | 264 | 0.9 | 3.5 | 0.01 | 0.01 | 0.01 | 59 | 1011.3 |
| 20260509155508 | 77 | 270 | 0.0 | 2.6 | 0.00 | 0.00 | 0.00 | 60 | 1011.4 |
| 20260509155013 | 77 | 101 | 0.0 | 2.6 | 0.00 | 0.00 | 0.00 | 59 | 1011.4 |
| 20260509154532 | 76 | 221 | 0.0 | 1.7 | 0.00 | 0.00 | 0.00 | 62 | 1011.3 |
| 20260509154028 | 76 | 7 | 0.0 | 4.3 | 0.00 | 0.00 | 0.00 | 61 | 1011.3 |